Weather History for Minchumina, AK

Change the Weather History Date:

Friday, March 15, 2013

  Actual Average Record
Temperature  
Mean Temperature 10 °F -  
Max Temperature 15 °F 19 °F 33 °F (1998)
Min Temperature 5 °F 0 °F -22 °F (2009)
Degree Days  
Heating Degree Days 55    
Moisture  
Dew Point -9 °F    
Average Humidity 43    
Maximum Humidity 48    
Minimum Humidity 35    
Precipitation  
Precipitation 0.00 in - - ()
Sea Level Pressure  
Sea Level Pressure 29.88 in    
Wind  
Wind Speed 5 mph (NE)    
Max Wind Speed 9 mph    
Max Gust Speed 18 mph    
Visibility 10 miles    
Events      
Averages and records for this station are not official NWS values.
T = Trace of Precipitation, MM = Missing Value Source: NWS Daily Summary

Daily Weather History Graph

Daily Weather History Graph

Search for Another Location

Airport:

Trip Planner

Search our weather history database for the weather conditions in past years. The results will help you decide how hot, cold, wet, or windy it might be!

Date:

Astronomy

Mar. 15, 2013 Rise Set
Actual Time 8:25 AM AKDT 8:11 PM AKDT
Civil Twilight 7:38 AM AKDT 8:58 PM AKDT
Nautical Twilight 6:42 AM AKDT 9:55 PM AKDT
Astronomical Twilight 5:40 AM AKDT 10:58 PM AKDT
Moon 8:49 AM AKDT (3/15) 1:04 AM AKDT (3/15)
Length of Visible Light 13h 19m
Length of Day
11h 45m
Waxing Crescent, 16% of the Moon is Illuminated
Mar 15
Waxing Crescent
Mar 19
First Quarter
Mar 27
Full
Apr 2
Last Quarter
Apr 10
New

Hourly Weather History & Observations

Time (AKDT) Temp. Windchill Dew Point Humidity Pressure Visibility Wind Dir Wind Speed Gust Speed Precip Events Conditions
12:16 AM 8.6 °F -3.7 °F -9.4 °F 44% 29.98 in 10.0 mi NE 8.1 mph - N/A   Clear
12:36 AM 6.8 °F -3.5 °F -9.4 °F 48% 29.99 in 10.0 mi ENE 5.8 mph - N/A   Clear
12:56 AM 6.8 °F -2.0 °F -9.4 °F 48% 29.98 in 10.0 mi NE 4.6 mph - N/A   Clear
1:16 AM 8.6 °F 0.1 °F -9.4 °F 44% 29.99 in 10.0 mi NE 4.6 mph - N/A   Clear
1:36 AM 6.8 °F -2.0 °F -9.4 °F 48% 29.98 in 10.0 mi NE 4.6 mph - N/A   Clear
1:56 AM 6.8 °F -2.0 °F -9.4 °F 48% 29.98 in 10.0 mi NE 4.6 mph - N/A   Clear
2:16 AM 6.8 °F -3.5 °F -9.4 °F 48% 29.97 in 10.0 mi ENE 5.8 mph - N/A   Clear
2:36 AM 6.8 °F -0.1 °F -9.4 °F 48% 29.97 in 10.0 mi NNE 3.5 mph - N/A   Clear
2:56 AM 6.8 °F -2.0 °F -9.4 °F 48% 29.96 in 10.0 mi NE 4.6 mph - N/A   Clear
3:16 AM 6.8 °F -0.1 °F -9.4 °F 48% 29.96 in 10.0 mi NE 3.5 mph - N/A   Clear
3:36 AM 6.8 °F -3.5 °F -9.4 °F 48% 29.95 in 10.0 mi NE 5.8 mph - N/A   Clear
3:56 AM 6.8 °F -3.5 °F -9.4 °F 48% 29.95 in 10.0 mi NE 5.8 mph - N/A   Clear
4:16 AM 6.8 °F -2.0 °F -9.4 °F 48% 29.94 in 10.0 mi NE 4.6 mph - N/A   Clear
4:36 AM 6.8 °F -2.0 °F -9.4 °F 48% 29.94 in 10.0 mi NE 4.6 mph - N/A   Clear
4:56 AM 6.8 °F -0.1 °F -11.2 °F 44% 29.93 in 10.0 mi NE 3.5 mph - N/A   Clear
5:16 AM 6.8 °F -3.5 °F -9.4 °F 48% 29.92 in 10.0 mi NE 5.8 mph - N/A   Clear
5:36 AM 6.8 °F -5.9 °F -11.2 °F 44% 29.92 in 10.0 mi NE 8.1 mph - N/A   Clear
5:56 AM 6.8 °F -2.0 °F -11.2 °F 44% 29.92 in 10.0 mi NE 4.6 mph - N/A   Clear
6:16 AM 6.8 °F -2.0 °F -11.2 °F 44% 29.92 in 10.0 mi NE 4.6 mph - N/A   Clear
6:36 AM 6.8 °F -0.1 °F -11.2 °F 44% 29.91 in 10.0 mi NE 3.5 mph - N/A   Clear
6:56 AM 6.8 °F -2.0 °F -9.4 °F 48% 29.90 in 10.0 mi NNE 4.6 mph - N/A   Clear
7:16 AM 5.0 °F -2.1 °F -11.2 °F 47% 29.90 in 10.0 mi NNE 3.5 mph - N/A   Clear
7:36 AM 6.8 °F -2.0 °F -11.2 °F 44% 29.90 in 10.0 mi NE 4.6 mph - N/A   Clear
7:56 AM 6.8 °F -0.1 °F -11.2 °F 44% 29.90 in 10.0 mi NE 3.5 mph - N/A   Clear
8:16 AM 6.8 °F -0.1 °F -11.2 °F 44% 29.90 in 10.0 mi NE 3.5 mph - N/A   Clear
8:36 AM 6.8 °F -4.8 °F -11.2 °F 44% 29.89 in 10.0 mi NE 6.9 mph - N/A   Clear
8:56 AM 6.8 °F -4.8 °F -11.2 °F 44% 29.88 in 10.0 mi NE 6.9 mph - N/A   Clear
9:16 AM 6.8 °F -3.5 °F -11.2 °F 44% 29.88 in 10.0 mi NE 5.8 mph - N/A   Clear
9:36 AM 6.8 °F -2.0 °F -11.2 °F 44% 29.87 in 10.0 mi NE 4.6 mph - N/A   Clear
9:56 AM 6.8 °F -3.5 °F -11.2 °F 44% 29.87 in 10.0 mi NE 5.8 mph - N/A   Clear
10:16 AM 8.6 °F -3.7 °F -9.4 °F 44% 29.86 in 10.0 mi NE 8.1 mph 17.3 mph N/A   Clear
10:36 AM 8.6 °F -2.6 °F -9.4 °F 44% 29.86 in 10.0 mi NE 6.9 mph - N/A   Clear
10:56 AM 8.6 °F 0.1 °F -9.4 °F 44% 29.87 in 10.0 mi NE 4.6 mph - N/A   Clear
11:16 AM 8.6 °F -2.6 °F -9.4 °F 44% 29.86 in 10.0 mi NE 6.9 mph - N/A   Clear
11:36 AM 10.4 °F - -9.4 °F 41% 29.86 in 10.0 mi Calm Calm - N/A   Clear
11:56 AM 10.4 °F 2.2 °F -9.4 °F 41% 29.86 in 10.0 mi NE 4.6 mph - N/A   Clear
12:16 PM 10.4 °F 0.8 °F -9.4 °F 41% 29.85 in 10.0 mi NE 5.8 mph - N/A   Clear
12:36 PM 10.4 °F 0.8 °F -9.4 °F 41% 29.85 in 10.0 mi NE 5.8 mph - N/A   Clear
12:56 PM 12.2 °F 4.3 °F -7.6 °F 41% 29.85 in 10.0 mi NE 4.6 mph - N/A   Clear
1:16 PM 12.2 °F 6.1 °F -7.6 °F 41% 29.85 in 10.0 mi NNE 3.5 mph - N/A   Clear
1:36 PM 12.2 °F 4.3 °F -7.6 °F 41% 29.85 in 10.0 mi NE 4.6 mph - N/A   Clear
1:56 PM 12.2 °F 0.7 °F -5.8 °F 45% 29.84 in 10.0 mi NE 8.1 mph - N/A   Clear
2:16 PM 14.0 °F 3.9 °F -5.8 °F 41% 29.84 in 10.0 mi NE 6.9 mph - N/A   Clear
2:36 PM 14.0 °F 5.1 °F -7.6 °F 38% 29.85 in 10.0 mi ENE 5.8 mph - N/A   Clear
2:56 PM 15.8 °F 5.1 °F -4.0 °F 41% 29.84 in 10.0 mi ENE 8.1 mph - N/A   Clear
3:16 PM 15.8 °F 7.2 °F -5.8 °F 38% 29.84 in 10.0 mi NE 5.8 mph 18.4 mph N/A   Clear
3:36 PM 15.8 °F 6.1 °F -4.0 °F 41% 29.83 in 10.0 mi ENE 6.9 mph - N/A   Clear
3:56 PM 15.8 °F 7.2 °F -4.0 °F 41% 29.83 in 10.0 mi ENE 5.8 mph - N/A   Clear
4:16 PM 15.8 °F 6.1 °F -5.8 °F 38% 29.83 in 10.0 mi ENE 6.9 mph - N/A   Clear
4:36 PM 15.8 °F 4.2 °F -5.8 °F 38% 29.82 in 10.0 mi ENE 9.2 mph - N/A   Clear
4:56 PM 15.8 °F 5.1 °F -4.0 °F 41% 29.82 in 10.0 mi NE 8.1 mph - N/A   Clear
5:16 PM 15.8 °F 4.2 °F -5.8 °F 38% 29.82 in 10.0 mi ENE 9.2 mph - N/A   Clear
5:36 PM 15.8 °F 6.1 °F -5.8 °F 38% 29.82 in 10.0 mi ENE 6.9 mph - N/A   Clear
5:56 PM 15.8 °F 4.2 °F -5.8 °F 38% 29.82 in 10.0 mi ENE 9.2 mph - N/A   Clear
6:16 PM 15.8 °F 7.2 °F -5.8 °F 38% 29.82 in 10.0 mi ENE 5.8 mph - N/A   Clear
6:36 PM 15.8 °F 7.2 °F -5.8 °F 38% 29.82 in 10.0 mi ENE 5.8 mph - N/A   Clear
6:56 PM 15.8 °F 7.2 °F -5.8 °F 38% 29.83 in 10.0 mi ENE 5.8 mph - N/A   Clear
7:16 PM 15.8 °F 8.6 °F -7.6 °F 35% 29.83 in 10.0 mi NE 4.6 mph - N/A   Clear
7:36 PM 14.0 °F 8.2 °F -7.6 °F 38% 29.83 in 10.0 mi NE 3.5 mph - N/A   Clear
7:56 PM 12.2 °F 4.3 °F -7.6 °F 41% 29.83 in 10.0 mi NE 4.6 mph - N/A   Clear
8:16 PM 12.2 °F 6.1 °F -7.6 °F 41% 29.83 in 10.0 mi NE 3.5 mph - N/A   Clear
8:36 PM 12.2 °F - -7.6 °F 41% 29.84 in 10.0 mi Calm Calm - N/A   Clear
9:56 PM 10.4 °F 4.0 °F -9.4 °F 41% 29.84 in 10.0 mi NE 3.5 mph - N/A   Clear
10:16 PM 10.4 °F 4.0 °F -9.4 °F 41% 29.84 in 10.0 mi NE 3.5 mph - N/A   Clear
10:36 PM 10.4 °F 2.2 °F -9.4 °F 41% 29.84 in 10.0 mi NE 4.6 mph - N/A   Clear
10:56 PM 10.4 °F 4.0 °F -9.4 °F 41% 29.85 in 10.0 mi NE 3.5 mph - N/A   Clear
11:16 PM 10.4 °F 2.2 °F -9.4 °F 41% 29.85 in 10.0 mi NE 4.6 mph - N/A   Clear
11:36 PM 10.4 °F 2.2 °F -9.4 °F 41% 29.86 in 10.0 mi NE 4.6 mph - N/A   Clear
11:56 PM 10.4 °F 0.8 °F -9.4 °F 41% 29.86 in 10.0 mi NE 5.8 mph - N/A   Clear